Regional Weather Roundup
Issued by NWS Sioux Falls, SD

Home | Current Version | Previous Version | Text Only | Print | Product List | Glossary Off
Versions: 1 2 3 4 5 6 7 8 9 10 11 12 13 14 15 16 17 18 19 20 21 22 23 24 25 26 27 28 29 30 31 32 33 34 35 36 37 38 39 40 41 42 43 44 45 46 47 48 49 50

000
ASUS43 KFSD 271502
RWRFSD

WEATHER ROUNDUP FOR SE SOUTH DAKOTA/SW MINNESOTA/NW IOWA
NATIONAL WEATHER SERVICE SIOUX FALLS SD
900 AM CST SAT DEC 27 2014

NOTE: "FAIR" INDICATES FEW OR NO CLOUDS BELOW 12,000 FEET WITH NO
SIGNIFICANT WEATHER AND OR OBSTRUCTIONS TO VISIBILITY.


SDZ038>040-050-052>070-271600-
SOUTHEAST SOUTH DAKOTA

CITY           SKY/WX    TMP DP  RH WIND       PRES   REMARKS
CHAMBERLAIN    NOT AVBL
HURON          CLEAR      0  -3  87 W7        30.20R WCI -13
MADISON        FAIR       9   9 100 W7        30.13S WCI  -3
MITCHELL       PTCLDY     7   4  87 W6        30.22R WCI  -3
SIOUX FALLS    PTCLDY    13   9  84 NW8       30.16S WCI   2
WINNER         FAIR      12   7  80 W8        30.17R WCI   0
YANKTON        PTCLDY    10   9  92 W10       30.23R WCI  -3
$$

MNZ071-072-080-081-089-090-097-098-271600-
SOUTHWEST MINNESOTA

CITY           SKY/WX    TMP DP  RH WIND       PRES   REMARKS
FAIRMONT       MOCLDY    18  10  73 NW17      30.09R WCI   2
JACKSON        CLOUDY    18  12  79 NW16      30.10R WCI   3
LUVERNE        CLEAR     14  10  85 NW6       30.16R WCI   5
MARSHALL       CLOUDY    10   3  72 NW14      30.14S WCI  -5
MONTEVIDEO     CLEAR      9   7  92 N8        30.16R WCI  -4
PIPESTONE        N/A     10   9  92 NW7       30.12R WCI   0
REDWOOD FALLS  CLOUDY    14  10  84 NW9       30.13R WCI   2
TRACY          PTCLDY    13   8  81 NW13      30.14R WCI  -2
WINDOM         PTCLDY    12   9  85 NW12      30.11R WCI  -2
WORTHINGTON    CLEAR     10 -31  13 NW8       30.12R WCI  -1
$$

IAZ001>003-012>014-020>022-031-032-NEZ013-014-SDZ071-271600-
NORTHWEST IOWA

CITY           SKY/WX    TMP DP  RH WIND       PRES   REMARKS
CHEROKEE       CLEAR     18  15  89 NW6       30.18R WCI  10
DENISON        CLOUDY    21  19  93 NW13      30.17R WCI   9
ESTHERVILLE    PTCLDY    15  12  88 NW16      30.11R WCI  -1
LE MARS        MOCLDY    16  12  86 W6        30.21R WCI   7
ORANGE CITY    PTCLDY    16  10  79 W7        30.16R WCI   6
SIOUX CITY     CLEAR     16  11  80 NW9       30.22R WCI   4
SPENCER        CLEAR     17  10  74 NW9       30.14R WCI   6
$$

ABBREVIATIONS USED IN REMARKS
   TC - TEMPERATURE IN CELSIUS
  WCI - WIND CHILL INDEX
   HX - HEAT INDEX
  VSB - VISIBILITY




USA.gov is the U.S. government's official web portal to all federal, state and local government web resources and services.